sat.trackr.live / text

‹ back to catalog

STARLINK-11414 [DTC]

NORAD 61948 · 2024-209K

PAYLOAD ACTIVE UNKNOWN

§ Identity

Operator
Country
US
Launch date
2024-11-14
Launch site
AFWTR
Launch vehicle
Mass (kg)
RCS (m²)

Purposes: comms

External: N2YO · Heavens-Above · Gunter

§ Orbital elements

Epoch: 2026-05-24T20:38:38.637024Z

Period
91.74 min
Inclination
53.1570°
Eccentricity
0.0000864
Mean motion
15.69722998 rev/d
Perigee alt
359.1 km
Apogee alt
360.3 km
Semi-major
6,737.8 km
B*
1.5470e-3
RAAN
355.5974°
Arg perigee
54.9462°
Mean anomaly
305.1637°
Rev number
8,868

§ Raw data

STARLINK-11414 [DTC]1 61948U 24209K   26144.86016941  .00191321  00000+0  15470-2 0  99922 61948  53.1570 355.5974 0000864  54.9462 305.1637 15.69722998 88680

JSON: /api/v1/satellites/61948 · /tle

For live sub-satellite position, see the globe view (requires WebGL).

§ Visibility from observer

Set your observer location to see the next 7 days of passes ≥ 10°. The values pass through the URL so the page stays shareable.

No JS? Fill the form by hand. The geolocation button needs JavaScript.